星链-31768 (STARLINK-31768 )

导读

STARLINK-31768是美国太空探索技术公司Starlink星座的一员,于北京时间2024年4月28日8时成功发射,该卫星属于Starlink卫星互联网组网卫星,加入后可进一步增强Starlink星座全球覆盖能力,为全球用户提供高速低延迟的卫星互联网服务,目前已进入预定轨道开展相关在轨测试运行。

基本信息
目录编号:
59616
目录名称:
STARLINK-31768
国际标识:
2024-080R
轨道中心:
EARTH
卫星名称:
星链-31768
卫星全名:
星链-31768 (STARLINK-31768 )
卫星状态:
在轨 (已飞行781 天)
发射日期:
2024-04-28 UTC
国别 :
美国 (US)
星等 :
--
轨道信息
数据来源 国际轨道数据 AOE轨道数据
星历时间 2026-06-16T16:55:16+0800
1天前
查看轨道信息
2026-06-17T06:00:00+0800
1天前
查看轨道信息
半长轴 6861.19km 6861.167km
偏心率 0.0001533 0.0001343
轨道倾角 42.999° 42.998°
近地点辐角 280.112° 293.604°
升交点赤经 200.701° 197.631°
平近点角 79.956° 186.842°
近地点 482.001km 482.108km
远地点 484.105km 483.952km
周期 94.267分钟 94.266分钟
每日圈数 15.275789 15.275864
详细信息
固有亮度:
5
最大亮度:
1.5
卫星平台:
Starlink v2.0 mini
覆盖范围:
全球
运营商:
太空探索技术公司
运营商所在国:
美国
制造商(研发单位):
太空探索技术公司
制造商所在国:
美国
使用方式:
暂无
卫星简介
星链(Starlink)计划是由太空探索技术公司(SpaceX)提出的一个巨型低轨卫星互联网星座项目,计划在2019年至2024年间在太空搭建由约1.2万颗卫星组成的“星链”网络,其中1584颗将部署在地球上空550千米处的近地轨道,并从2020年开始工作。该卫星仍在工作。
2D轨道图
3D轨道图
轨道高度分析图
轨道倾角分析图
轨道综合分析图
查看轨道综合分析图